| time (UTC) | temp F | wind direction | speed MPH | gust MPH | rain 1hr in | rain 24hr in | rain mn in | humidity % | barometer mb |
| 20260505151508 | 60 | 329 | 7.0 | 11.0 | 0.00 | 0.23 | 0.17 | 83 | 1008.0 |
| 20260505130129 | 63 | 144 | 2.0 | 5.0 | 0.00 | 0.09 | 0.03 | 75 | 1007.9 |
| 20260505124504 | 63 | 190 | 2.0 | 5.0 | 0.00 | 0.09 | 0.03 | 73 | 1008.0 |
| 20260505123005 | 64 | 10 | 1.0 | 5.0 | 0.00 | 0.09 | 0.03 | 73 | 1008.0 |
| 20260505121556 | 63 | 175 | 1.0 | 5.0 | 0.00 | 0.09 | 0.03 | 76 | 1008.2 |
| 20260505120113 | 62 | 9 | 2.0 | 4.0 | 0.00 | 0.09 | 0.03 | 77 | 1008.4 |
| 20260505114550 | 61 | 22 | 1.0 | 4.0 | 0.00 | 0.09 | 0.03 | 77 | 1008.5 |
| 20260505113109 | 60 | 276 | 0.0 | 3.0 | 0.00 | 0.09 | 0.03 | 79 | 1008.6 |
| 20260505111534 | 60 | 271 | 1.0 | 4.0 | 0.00 | 0.09 | 0.03 | 82 | 1008.9 |
| 20260505101526 | 58 | 279 | 2.0 | 4.0 | 0.00 | 0.09 | 0.03 | 85 | 1009.2 |
| 20260505100057 | 58 | 286 | 3.0 | 6.0 | 0.00 | 0.09 | 0.03 | 86 | 1009.1 |
| 20260505094518 | 58 | 314 | 0.0 | 3.0 | 0.00 | 0.09 | 0.03 | 87 | 1009.0 |
| 20260505093020 | 57 | 246 | 1.0 | 3.0 | 0.00 | 0.09 | 0.03 | 90 | 1009.1 |
| 20260505091519 | 57 | 246 | 0.0 | 3.0 | 0.00 | 0.09 | 0.03 | 91 | 1009.2 |
| 20260505090045 | 57 | 219 | 0.0 | 2.0 | 0.00 | 0.09 | 0.03 | 92 | 1009.1 |
| 20260505084508 | 57 | 219 | 0.0 | 3.0 | 0.00 | 0.09 | 0.03 | 93 | 1009.1 |
| 20260505083050 | 56 | 219 | 0.0 | 0.0 | 0.00 | 0.09 | 0.03 | 93 | 1009.3 |
| 20260505081604 | 55 | 219 | 0.0 | 3.0 | 0.00 | 0.09 | 0.03 | 93 | 1009.4 |
| 20260505080118 | 55 | 221 | 1.0 | 4.0 | 0.00 | 0.09 | 0.03 | 94 | 1009.6 |
| 20260505074555 | 55 | 220 | 3.0 | 5.0 | 0.00 | 0.09 | 0.03 | 94 | 1009.8 |
| 20260505073118 | 55 | 229 | 2.0 | 5.0 | 0.00 | 0.09 | 0.03 | 94 | 1009.8 |
| 20260505071548 | 54 | 221 | 2.0 | 6.0 | 0.00 | 0.09 | 0.03 | 94 | 1009.9 |
| 20260505070119 | 54 | 222 | 3.0 | 5.0 | 0.00 | 0.09 | 0.03 | 94 | 1009.9 |
| 20260505064558 | 54 | 225 | 3.0 | 5.0 | 0.00 | 0.09 | 0.03 | 94 | 1010.0 |
| 20260505063109 | 53 | 235 | 2.0 | 5.0 | 0.00 | 0.09 | 0.03 | 94 | 1010.1 |
| 20260505061535 | 53 | 246 | 1.0 | 4.0 | 0.01 | 0.09 | 0.03 | 94 | 1010.1 |
| 20260505060107 | 53 | 247 | 2.0 | 3.0 | 0.01 | 0.09 | 0.03 | 94 | 1010.2 |
| 20260505054540 | 53 | 247 | 1.0 | 5.0 | 0.02 | 0.09 | 0.03 | 94 | 1010.2 |
| 20260505053117 | 52 | 239 | 1.0 | 8.0 | 0.02 | 0.09 | 0.03 | 94 | 1010.2 |
| 20260505051533 | 53 | 234 | 3.0 | 5.0 | 0.02 | 0.08 | 0.02 | 94 | 1010.2 |
| 20260505041548 | 53 | 178 | 1.0 | 2.0 | 0.00 | 0.06 | 0.00 | 94 | 1010.1 |
| 20260505040107 | 53 | 178 | 1.0 | 3.0 | 0.00 | 0.06 | 0.00 | 94 | 1010.0 |
| 20260505034537 | 52 | 166 | 0.0 | 0.0 | 0.00 | 0.06 | 0.00 | 94 | 1010.2 |
| 20260505033103 | 52 | 166 | 0.0 | 2.0 | 0.00 | 0.06 | 0.00 | 94 | 1010.3 |
| 20260505031543 | 52 | 166 | 0.0 | 2.0 | 0.00 | 0.06 | 0.00 | 94 | 1010.3 |
| 20260505030131 | 52 | 166 | 0.0 | 0.0 | 0.00 | 0.06 | 0.00 | 94 | 1010.3 |
| 20260505024540 | 52 | 166 | 0.0 | 0.0 | 0.00 | 0.06 | 0.00 | 94 | 1010.4 |
| 20260505023113 | 52 | 166 | 0.0 | 1.0 | 0.00 | 0.06 | 0.00 | 94 | 1010.4 |
| 20260505021543 | 51 | 165 | 0.0 | 3.0 | 0.00 | 0.06 | 0.00 | 94 | 1010.5 |
| 20260505020113 | 52 | 165 | 1.0 | 5.0 | 0.00 | 0.06 | 0.00 | 94 | 1010.6 |
| 20260505014600 | 51 | 225 | 0.0 | 0.0 | 0.00 | 0.06 | 0.00 | 94 | 1010.6 |
| 20260505013107 | 51 | 225 | 0.0 | 0.0 | 0.00 | 0.06 | 0.00 | 94 | 1010.8 |
| 20260505011542 | 51 | 225 | 0.0 | 1.0 | 0.00 | 0.06 | 0.00 | 94 | 1010.9 |
| 20260505010105 | 51 | 225 | 0.0 | 2.0 | 0.00 | 0.06 | 0.00 | 93 | 1011.3 |
| 20260505004548 | 51 | 225 | 0.0 | 2.0 | 0.00 | 0.06 | 0.00 | 94 | 1011.4 |
| 20260505003119 | 51 | 225 | 0.0 | 2.0 | 0.00 | 0.06 | 0.00 | 93 | 1011.6 |
| 20260505001542 | 51 | 225 | 1.0 | 2.0 | 0.00 | 0.06 | 0.00 | 93 | 1011.8 |
| 20260505000108 | 51 | 225 | 1.0 | 3.0 | 0.00 | 0.06 | 0.00 | 93 | 1012.0 |
| 20260504234540 | 51 | 225 | 0.0 | 3.0 | 0.00 | 0.06 | 0.00 | 93 | 1012.0 |
| 20260504233103 | 51 | 225 | 0.0 | 2.0 | 0.00 | 0.06 | 0.00 | 93 | 1012.1 |
| 20260504231527 | 52 | 225 | 0.0 | 0.0 | 0.00 | 0.06 | 0.00 | 93 | 1012.2 |
| 20260504230057 | 52 | 225 | 0.0 | 0.0 | 0.00 | 0.06 | 0.00 | 93 | 1012.4 |
| 20260504224522 | 53 | 225 | 1.0 | 2.0 | 0.00 | 0.06 | 0.00 | 93 | 1012.4 |
| 20260504223101 | 53 | 225 | 1.0 | 2.0 | 0.00 | 0.06 | 0.00 | 93 | 1012.5 |
| 20260504221526 | 53 | 225 | 0.0 | 3.0 | 0.00 | 0.06 | 0.00 | 93 | 1012.6 |
| 20260504220025 | 54 | 225 | 1.0 | 2.0 | 0.00 | 0.06 | 0.00 | 93 | 1012.6 |
| 20260504214518 | 54 | 225 | 0.0 | 0.0 | 0.00 | 0.06 | 0.06 | 93 | 1012.6 |
| 20260504213050 | 55 | 225 | 0.0 | 0.0 | 0.00 | 0.06 | 0.06 | 93 | 1012.6 |
| 20260504211535 | 55 | 225 | 0.0 | 1.0 | 0.00 | 0.06 | 0.06 | 93 | 1012.7 |
| 20260504210101 | 56 | 225 | 0.0 | 3.0 | 0.00 | 0.06 | 0.06 | 93 | 1012.9 |
| 20260504204539 | 56 | 227 | 0.0 | 3.0 | 0.00 | 0.06 | 0.06 | 92 | 1012.9 |
| 20260504203111 | 56 | 228 | 0.0 | 1.0 | 0.00 | 0.06 | 0.06 | 92 | 1013.1 |
| 20260504201540 | 56 | 228 | 0.0 | 1.0 | 0.00 | 0.06 | 0.06 | 92 | 1013.2 |
| 20260504200104 | 56 | 228 | 0.0 | 2.0 | 0.00 | 0.06 | 0.06 | 92 | 1013.1 |
| 20260504194544 | 56 | 228 | 1.0 | 3.0 | 0.00 | 0.06 | 0.06 | 92 | 1013.1 |
| 20260504193110 | 57 | 229 | 2.0 | 3.0 | 0.00 | 0.06 | 0.06 | 92 | 1013.0 |
| 20260504191549 | 57 | 225 | 3.0 | 5.0 | 0.00 | 0.06 | 0.06 | 92 | 1012.9 |
| 20260504190114 | 57 | 126 | 1.0 | 3.0 | 0.00 | 0.06 | 0.06 | 91 | 1012.6 |
| 20260504184551 | 57 | 127 | 0.0 | 3.0 | 0.00 | 0.06 | 0.06 | 91 | 1012.7 |
| 20260504183006 | 57 | 128 | 1.0 | 4.0 | 0.00 | 0.06 | 0.06 | 91 | 1012.8 |
| 20260504181602 | 58 | 105 | 2.0 | 3.0 | 0.01 | 0.06 | 0.06 | 91 | 1012.9 |
| 20260504181505 | 58 | 103 | 2.0 | 3.0 | 0.01 | 0.06 | 0.06 | 90 | 1012.9 |
| 20260504180002 | 58 | 94 | 1.0 | 4.0 | 0.01 | 0.06 | 0.06 | 90 | 1012.9 |
| 20260504174559 | 58 | 197 | 1.0 | 3.0 | 0.02 | 0.06 | 0.06 | 90 | 1013.0 |
| 20260504173123 | 58 | 249 | 1.0 | 2.0 | 0.02 | 0.06 | 0.06 | 89 | 1013.3 |
| 20260504171557 | 58 | 249 | 0.0 | 1.0 | 0.02 | 0.05 | 0.05 | 89 | 1013.4 |
| 20260504171505 | 58 | 249 | 0.0 | 1.0 | 0.02 | 0.05 | 0.05 | 89 | 1013.5 |